{"data":{"norad_id":27869,"epoch":"2026-09-19T23:22:47.926848Z","epoch_age_seconds":59884,"freshness":"FRESH","line1":"1 27869U 03037B   26262.97416582  .00000051  00000+0  28597-3 0  9994","line2":"2 27869  82.4650 266.7467 0021703 200.3241 159.6979 12.45504597 49575","mean_motion":12.45504597,"eccentricity":0.0021703,"inclination_deg":82.465,"raan_deg":266.7467,"arg_perigee_deg":200.3241,"mean_anomaly_deg":159.6979,"bstar":0.00028597,"rev_number":4957,"period_min":115.61579166135,"perigee_km":1466.2927459001,"apogee_km":1500.4163360829,"semimajor_km":7861.4915409915,"source":"CELESTRAK","updated_at":"2026-09-20T09:00:13.590679Z"}}